Simultaneous Nadir Overpasses (SNOs) Predictions

Prediction of SNOs between GOES-17 and FY3D Satellite Orbit:

Table of predicted SNOs for the next 14.0 days since TLE Epoch: 7/7/2025
Index Date Time (GOES-17) GOES-17 Lat,Lon FY3D Lat,Lon Distance(km) Time Diff (sec)
1 07/08/2025 09:24:56 -0.06, -91.20 0.69, -94.48 374.43 80
2 07/09/2025 09:08:44 -0.06, -90.67 -0.25, -89.89 89.26 80
3 07/11/2025 21:08:57 0.07, -89.35 -0.17, -90.48 128.91 80
4 07/12/2025 20:52:46 0.07, -88.82 0.77, -85.89 335.21 80
5 07/14/2025 09:11:42 -0.08, -88.00 0.60, -91.03 345.68 80
6 07/15/2025 08:55:31 -0.08, -87.47 -0.34, -86.44 118.71 80
7 07/17/2025 20:55:42 0.08, -86.16 -0.12, -87.02 97.96 80
8 07/18/2025 20:39:31 0.08, -85.64 0.82, -82.42 366.61 80
9 07/20/2025 08:58:27 -0.09, -84.82 0.55, -87.57 313.78 80
10 07/21/2025 08:42:16 -0.09, -84.30 -0.39, -82.98 150.62 80
